Location: Boden
(46.8667°N, 8.5833°E)
Time: 23:13:06
(UTC+00:00)

Daily predictions for brighter satellites

Satellite Brightness Start Highest point End
(mag) Time Altitude Azimuth Time Altitude Azimuth Time Altitude Azimuth
Cosmos 1354 Rocket 4.0 16:07:20 10° NNW 16:12:42 78° ENE 16:18:02 10° SSE
CZ-4B R/B 4.3 16:09:22 10° ESE 16:13:29 22° ENE 16:17:33 10° N
CZ-4B R/B 2.9 16:14:49 10° SSE 16:19:05 77° ENE 16:23:10 10° N
ADEOS 4.4 16:16:02 10° S 16:21:10 58° WSW 16:26:21 10° NNW
Meteor 1-27 4.4 16:17:19 10° SSW 16:22:53 77° WNW 16:28:30 10° N
Iridium 2 3.9 16:21:55 10° N 16:25:34 46° E 16:29:12 10° SSE
Cosmos 1869 3.8 16:21:59 10° SSW 16:25:52 61° WNW 16:29:43 10° N
Cosmos 1766 Rocket 3.6 16:22:23 10° N 16:26:42 59° ENE 16:30:59 10° SSE
USA 305 3.2 16:25:30 10° SW 16:29:38 57° SE 16:33:32 11° ENE
Cosmos 1606 3.4 16:27:46 10° SSE 16:31:07 32° E 16:34:31 10° NNE
SL-08 R/B 3.7 16:26:39 10° N 16:31:26 69° WNW 16:36:05 10° SSW
ARGOS 4.1 16:29:24 10° ESE 16:33:42 25° ENE 16:38:01 10° N
USA 276 2.6 16:32:49 10° W 16:35:51 47° N 16:38:19 14° ENE
Okean O Rocket 2.8 16:33:06 10° ESE 16:36:27 21° ENE 16:39:49 10° NNE
COSMO-SKYMED 1 4.0 16:34:38 10° NE 16:37:47 19° E 16:40:55 10° SE
Cosmos 1464 Rocket 4.2 16:33:31 10° SSE 16:39:40 55° E 16:45:52 10° NNE
Meteor PRIRODA 4.5 16:37:56 10° S 16:41:31 54° W 16:45:07 10° NNW
Aureole 3 4.2 16:37:26 10° S 16:42:29 69° E 16:48:54 10° NNE
ERBS 3.6 16:43:01 10° S 16:45:38 23° SE 16:47:12 16° E
Meteor 2-19 Rocket 4.5 16:41:52 10° N 16:47:51 56° ENE 16:53:48 10° SSE
Cosmos 2221 2.7 16:45:04 10° SSE 16:49:09 46° E 16:53:15 10° NNE
NOSS 2-1 (E) 2.8 16:46:37 10° SSW 16:49:53 67° SE 16:52:18 17° NE
ISS -3.3 16:49:21 10° W 16:52:41 52° NNW 16:54:50 20° NE
USA 267 3.8 16:47:44 12° NE 16:53:39 49° NNW 16:59:53 10° W
CZ-2C R/B 3.3 16:49:09 10° NNE 16:53:47 31° E 16:58:20 10° SSE
Cosmos 1340 Rocket 3.5 16:52:25 10° N 16:56:07 33° ENE 16:59:49 10° SE
deb Kosmos-1763 4.4 16:54:06 10° S 16:57:16 38° ESE 16:59:07 21° NE
deb Chang Zheng 4 4.0 16:53:30 10° SE 16:57:28 38° ENE 17:01:29 10° N
YAOGAN 1 4.1 16:58:27 16° NE 16:58:27 16° NE 17:00:28 10° NNE
AQUARIUS 4.2 16:53:42 10° SSE 16:58:11 87° WSW 17:02:43 10° NNW
Nadezhda 4 Rocket 4.0 16:54:20 10° N 17:00:36 63° ENE 17:06:51 10° SSE
Cosmos 1271 Rocket 3.1 16:56:45 10° SSW 17:00:37 69° WNW 17:04:34 10° N
USA 306 2.8 16:57:02 10° SW 17:01:17 88° SSE 17:04:02 22° ENE
USA 229 DEB 4.3 16:54:51 10° NW 17:01:34 40° NE 17:07:26 15° E
USA 229 4.4 16:54:56 10° NW 17:01:40 40° NE 17:07:28 15° E
Lacrosse 5 rocket 2.9 16:58:43 10° WNW 17:01:42 21° NNW 17:03:54 14° NNE
SMAP 3.5 17:00:39 10° S 17:05:16 64° WSW 17:09:55 10° NNW
Cosmos 1092 Rocket 4.3 17:01:26 10° N 17:07:28 44° ENE 17:13:29 10° SE
Cosmos 1408 Rocket 3.4 17:04:09 10° N 17:08:30 77° E 17:12:50 10° SSE
CZ-4B DEB 4.3 17:02:58 10° SSE 17:08:32 83° WSW 17:14:04 10° NNW
ATLAS 2AS CENTAUR R/B 4.0 17:01:26 10° W 17:08:36 37° NNW 17:15:29 10° NNE
Cosmos 1743 Rocket 3.8 17:06:16 10° N 17:10:25 43° ENE 17:14:32 10° SSE
Meteor 2-2 Rocket 4.4 17:04:49 10° S 17:10:51 88° W 17:16:55 10° N
Cosmos 1697 Rocket 3.5 17:07:13 10° N 17:12:09 30° NE 17:14:22 23° E
Cosmos 1980 Rocket 3.5 17:08:16 10° N 17:12:16 19° NE 17:12:43 19° NE
H-2A R/B 2.0 17:07:41 10° SSE 17:12:57 76° ENE 17:18:06 10° N
PAYLOAD B 4.2 17:10:07 10° SSE 17:15:44 90° ENE 17:21:23 10° NNW
USA 307 2.9 17:12:06 10° WSW 17:16:23 82° NNW 17:18:33 29° NE
SJ-11-01 4.4 17:13:40 10° SE 17:18:15 51° ENE 17:22:52 10° N
Cosmos 44 3.4 17:13:43 10° NNW 17:18:28 49° NE 17:20:56 24° ESE
ATLAS CENTAUR R/B 2.2 17:16:50 10° WSW 17:20:50 49° NW 17:23:56 18° NNE
Cosmos 2034 Rocket 3.9 17:14:51 10° S 17:21:00 77° E 17:27:10 10° NNE
Lacrosse 5 2.7 17:18:44 10° WNW 17:23:41 50° SW 17:28:36 10° SSE
NOSS 3-1 (A) 4.2 17:18:01 10° NW 17:25:08 54° NE 17:31:39 17° ESE
SKYMED 2 3.6 17:22:52 17° NNE 17:26:08 57° E 17:30:24 10° S
Cosmos 1809 Rocket 4.5 17:22:32 10° N 17:28:32 54° ENE 17:34:28 10° SSE
Cosmos 1898 Rocket 3.8 17:23:57 10° N 17:28:58 42° ENE 17:31:16 27° ESE
NOSS 3-1 (C) 4.0 17:22:48 10° NW 17:30:12 78° NE 17:38:55 10° SE
NOSS 2-1 (C) 3.9 17:27:46 10° WSW 17:30:51 38° NW 17:32:11 26° N
MOS 1-B Rocket 3.8 17:25:23 10° NNE 17:31:04 77° ESE 17:37:16 10° S
Cosmos 1656 3.5 17:26:05 10° NNW 17:31:36 71° ENE 17:37:10 10° SE
Cosmos 2084 4.4 17:30:20 10° NNW 17:33:54 31° NNE 17:33:54 31° NNE
GEOS 3 Rocket 3.7 17:28:55 10° SE 17:34:11 81° SW 17:39:26 10° NW
CZ-2D R/B 4.1 17:30:34 10° S 17:34:20 53° W 17:38:07 10° NNW
Meteor 1-20 Rocket 4.2 17:30:27 10° N 17:36:15 75° ENE 17:42:05 10° SSE
Cosmos 1461 4.4 17:33:39 10° WSW 17:37:24 30° NW 17:39:49 17° N
USA 308 3.1 17:34:18 10° WSW 17:38:32 63° NNW 17:39:46 42° NE
SL-08 RB Rocket 3.8 17:34:41 10° SSE 17:39:14 55° ENE 17:43:47 10° N
NOSS 2-1 (D) 4.3 17:37:11 10° WSW 17:40:09 32° NW 17:41:11 26° N
Cosmos 468 Rocket 4.1 17:36:46 10° S 17:41:41 48° ESE 17:42:42 42° ENE
Cosmos 1500 Rocket 3.6 17:37:32 10° N 17:42:02 83° W 17:46:28 10° S
Cosmos 2279 Rocket 4.4 17:37:56 10° SSE 17:43:29 36° E 17:43:29 36° E
SJ 16-02 3.0 17:40:33 10° NW 17:44:31 34° WSW 17:48:28 10° SSW
Cosmos 2360 4.4 17:41:51 10° NNW 17:47:24 47° NE 17:48:27 43° E
Cosmos 1634 Rocket 4.0 17:43:14 10° S 17:49:26 62° E 17:55:41 10° NNE
Cosmos 1805 Rocket 3.3 17:48:01 10° N 17:52:22 75° E 17:56:42 10° SSE
CZ-4B R/B 3.6 17:48:08 10° S 17:53:36 64° WSW 17:58:59 10° NNW
CZ-4C R/B 3.6 17:48:56 10° NNW 17:55:03 34° NNE 17:56:09 32° NE
CZ-4 R/B 3.4 18:00:41 18° N 18:00:41 18° N 18:01:46 10° N
Cosmos 1833 Rocket 2.7 17:53:09 10° S 17:58:33 52° ESE 17:58:47 51° E
ATLAS 5 CENTAUR R/B 3.3 17:51:38 10° NW 17:58:54 33° NNE 17:58:54 33° NNE
Cosmos 540 Rocket 4.4 17:59:24 10° S 18:02:28 33° SSE 18:02:28 33° SSE
Meteor 1-25 Rocket 4.4 18:02:31 10° NNW 18:08:02 68° W 18:13:33 10° S
Cosmos 2026 Rocket 3.9 18:02:36 10° N 18:08:50 84° W 18:14:57 10° S
USA 305 3.7 18:05:35 10° W 18:09:31 43° NNW 18:09:31 43° NNW
Sich 1 4.3 18:07:08 10° N 18:09:17 29° N 18:09:17 29° N
USA 276 4.4 18:09:05 10° WNW 18:10:26 23° WNW 18:10:26 23° WNW
Okean O Rocket 2.6 18:08:13 10° S 18:12:30 46° W 18:16:49 10° NNW
ARGOS 3.8 18:08:18 10° S 18:13:36 56° W 18:18:57 10° NNW
COSMO-SKYMED 1 3.5 18:11:30 20° N 18:14:11 46° WNW 18:18:19 10° SW
Spot 2 4.4 18:11:28 14° SSE 18:15:46 86° WSW 18:20:58 10° NNW
ATLAS CENTAUR R/B 2.4 18:10:04 10° SW 18:19:07 83° SE 18:19:17 81° ESE
Cosmos 1937 Rocket 3.5 18:16:20 10° NNW 18:21:06 70° N 18:21:06 70° N
Meteor 2-16 Rocket 4.2 18:18:45 10° N 18:24:53 76° E 18:25:15 73° ESE
Cosmos 1763 Rocket 3.6 18:23:22 10° SSW 18:28:24 67° WNW 18:28:45 65° NW
ISS -1.0 18:26:46 10° WNW 18:27:49 17° NW 18:27:49 17° NW
YAOGAN 1 4.3 18:35:36 26° NNW 18:35:36 26° NNW 18:37:35 10° NNW
CZ-2C R/B 3.8 18:29:18 10° N 18:34:10 39° WNW 18:38:56 10° SW
USA 267 4.1 18:35:05 35° NNE 18:35:53 37° N 18:41:44 10° WNW
Cosmos 2369 4.2 18:33:49 10° NNW 18:38:07 52° NNW 18:38:07 52° NNW
Lacrosse 5 rocket 4.0 18:38:54 10° NW 18:39:29 13° NNW 18:39:29 13° NNW
USA 229 DEB 4.1 18:45:45 10° NW 18:53:03 68° WSW 18:54:57 52° S
USA 229 4.1 18:45:50 10° NW 18:53:09 69° SW 18:54:59 53° S
Cosmos 1697 Rocket 3.3 18:50:56 10° NW 18:56:10 52° W 18:56:10 52° W
Cosmos 1980 Rocket 3.4 18:51:26 10° NNW 18:54:31 34° NNW 18:54:31 34° NNW
SL-16 R/B 4.5 18:52:19 10° NNW 18:53:08 14° N 18:53:08 14° N
COSMOS 2455 4.4 18:52:17 10° SSW 18:54:37 25° SSW 18:54:37 25° SSW
COSMOS 2406 4.1 18:53:24 10° SSW 18:57:17 44° SW 18:57:17 44° SW
ATLAS CENTAUR R/B 4.2 18:58:36 10° NW 19:00:03 13° NW 19:00:03 13° NW
ATLAS 2AS CENTAUR R/B 4.4 18:56:08 10° NW 19:01:51 22° N 19:02:55 21° N
Cosmos 2082 Rocket 4.3 18:57:03 10° SSW 18:58:13 17° SSW 18:58:13 17° SSW
CZ-4C R/B 3.9 19:37:12 10° NW 19:41:21 40° NW 19:41:21 40° NW
